Tracking 31027 objects as of 19-Jul-2025
HD Live streaming from Space Station
objects crossing your sky now

STARLINK-2436

Track STARLINK-2436 now!
10-day predictions
STARLINK-2436 is classified as:


NORAD ID: 48101
Int'l Code: 2021-027K
Perigee: 553.3 km
Apogee: 555.4 km
Inclination: 53.1 °
Period: 95.6 minutes
Semi major axis: 6925 km
RCS: Unknown
Launch date: April 7, 2021
Source: United States (US)
Launch site: AIR FORCE EASTERN TEST RANGE (AFETR)
Your satellite tracking list
ATLAS 5 CENTAUR DEB
Track 1 satellite(s)




NASA's NSSDC Master Catalog

Two Line Element Set (TLE):
1 48101U 21027K   25199.51928629 -.00000409  00000-0 -85339-5 0  9992
2 48101  53.0558 133.0528 0001556  89.1721 270.9446 15.06394412237266
Source of the keplerian elements: AFSPC